Puebla, Mexico

4:47 PM CDT on August 17, 2017 (GMT -0500)
Hermanos Serdan International

Weather History for MMPB - November, 2012

Change the Weather History Date:

Friday, November 2, 2012

  Actual Average Record
Temperature  
Mean Temperature 58 °F -  
Max Temperature 67 °F 69 °F 83 °F (2016)
Min Temperature 48 °F 46 °F 39 °F (2011)
Degree Days  
Heating Degree Days 8    
Growing Degree Days 8 (Base 50)    
Moisture  
Dew Point 40 °F    
Average Humidity 54    
Maximum Humidity 81    
Minimum Humidity 21    
Precipitation  
Precipitation 0.00 in - - ()
Sea Level Pressure  
Sea Level Pressure 30.21 in    
Wind  
Wind Speed 3 mph ()    
Max Wind Speed 10 mph    
Max Gust Speed -    
Visibility 7.5 miles    
Events      
Averages and records for this station are not official NWS values.
T = Trace of Precipitation, MM = Missing Value Source: Averaged Metar Reports

Daily Weather History Graph

Daily Weather History Graph

Search for Another Location

Airport or City:

Trip Planner

Search our weather history database for the weather conditions in past years. The results will help you decide how hot, cold, wet, or windy it might be!

Date:

Astronomy

Nov. 02, 2012 Rise Set
Actual Time 6:33 AM CST 5:58 PM CST
Civil Twilight 6:11 AM CST 6:21 PM CST
Nautical Twilight 5:45 AM CST 6:47 PM CST
Astronomical Twilight 5:19 AM CST 7:13 PM CST
Moon 9:02 PM CST (11/2) 9:39 AM CST (11/2)
Length of Visible Light 12h 09m
Length of Day
11h 24m
Waning Gibbous, 87% of the Moon is Illuminated
Nov 2
Waning Gibbous
Nov 6
Last Quarter
Nov 13
New
Nov 20
First Quarter
Nov 28
Full

Hourly Weather History & Observations

Time (CST) Temp. Windchill Dew Point Humidity Pressure Visibility Wind Dir Wind Speed Gust Speed Precip Events Conditions
5:34 AM 44.6 °F 43.1 °F 39.2 °F 81% 30.31 in 8.0 mi NW 3.5 mph - N/A   Overcast
5:42 AM 44.6 °F 42.2 °F 39.2 °F 81% 30.31 in 8.0 mi NNW 4.6 mph - N/A   Overcast
5:50 AM 50 °F - 42 °F 65% 29.96 in 3 mi Calm Calm - -   Overcast
6:43 AM 44.6 °F - 39.2 °F 81% 30.33 in 8.0 mi Calm Calm - N/A   Overcast
7:45 AM 46.4 °F 43.5 °F 41.0 °F 81% 30.33 in 8.0 mi NNW 5.8 mph - N/A   Overcast
8:40 AM 53.6 °F - 42.8 °F 67% 30.35 in 8.0 mi NNW 5.8 mph - N/A   Overcast
8:50 AM 54 °F - 43 °F 55% 30.03 in 6 mi Calm Calm - -   Overcast
9:45 AM 57.2 °F - 39.2 °F 51% 30.36 in 8.0 mi Calm Calm - N/A   Overcast
10:42 AM 59.0 °F - 39.2 °F 48% 30.35 in 8.0 mi Calm Calm - N/A   Overcast
11:44 AM 60.8 °F - 37.4 °F 42% 30.33 in 8.0 mi Calm Calm - N/A   Overcast
11:50 AM 63 °F - 39 °F 29% 30.00 in 3 mi Calm Calm - -   Overcast
12:46 PM 64.4 °F - 32.0 °F 30% 30.30 in 8.0 mi SSE 5.8 mph - N/A   Overcast
1:42 PM 64.4 °F - 33.8 °F 32% 30.27 in 8.0 mi South 5.8 mph - N/A   Overcast
2:40 PM 64.4 °F - 35.6 °F 34% 30.26 in 8.0 mi SSE 6.9 mph - N/A   Overcast
2:50 PM 66 °F - 35 °F 21% 29.87 in 12 mi SSE 2.2 mph - -   Mostly Cloudy
3:41 PM 64.4 °F - 37.4 °F 37% 30.25 in 8.0 mi SSE 6.9 mph - N/A   Overcast
4:43 PM 60.8 °F - 41.0 °F 48% 30.27 in 8.0 mi SSW 5.8 mph - N/A   Overcast
5:44 PM 59.0 °F - 42.8 °F 55% 30.27 in 8.0 mi SW 6.9 mph - N/A   Overcast
5:50 PM 61 °F - 39 °F 32% 29.83 in 12 mi ESE 2.2 mph - -   Overcast
6:43 PM 55.4 °F - 44.6 °F 67% 30.29 in 8.0 mi South 10.4 mph - N/A   Overcast
7:47 PM 53.6 °F - 44.6 °F 72% 30.29 in 8.0 mi South 5.8 mph - N/A   Overcast
8:54 PM 55.4 °F - 44.6 °F 67% 30.33 in 8.0 mi Calm Calm - N/A   Overcast
8:58 PM 58 °F - 39 °F 37% 29.86 in 3 mi Calm Calm - -   Mostly Cloudy
9:43 PM 53.6 °F - 44.6 °F 72% 30.33 in 8.0 mi SSW 3.5 mph - N/A   Overcast
10:43 PM 50.0 °F - 42.8 °F 76% 30.34 in 8.0 mi SSE 3.5 mph - N/A   Overcast
11:50 PM 55 °F - 42 °F 51% 29.93 in 3 mi Calm Calm - -   Partly Cloudy